Location: Apthorp Dam
(44.3084°N, 71.7462°W)
Time: 11:42:15
(UTC+00:00)

BlueWalker 3 - Visible Passes

Search period start: 11 October 2024 00:00
Search period end: 21 October 2024 00:00
Orbit: 472 x 485 km, 53.2° (Epoch: 10 October)

Date Brightness Start Highest point End Pass type
(mag) Time Alt. Az. Time Alt. Az. Time Alt. Az.
11 Oct 3.6 08:36:05 27° NNE 08:36:05 27° NNE 08:38:09 10° NE visible
11 Oct 3.7 10:10:31 10° NW 10:13:21 20° N 10:16:12 10° NE visible
12 Oct 4.7 08:08:53 16° NE 08:08:53 16° NE 08:09:46 10° NE visible
12 Oct 3.7 09:43:04 15° NW 09:44:54 21° N 09:47:46 10° NE visible
13 Oct 3.6 09:15:48 20° NNW 09:16:25 21° N 09:19:18 10° NE visible
14 Oct 3.9 08:48:30 21° N 08:48:30 21° N 08:50:48 10° NE visible
14 Oct 3.6 10:23:42 10° NW 10:26:46 24° NNE 10:29:49 10° ENE visible
15 Oct 4.5 08:21:10 16° NNE 08:21:10 16° NNE 08:22:17 10° NE visible
15 Oct 3.7 09:55:21 11° NW 09:58:12 23° NNE 10:01:13 10° ENE visible
16 Oct 3.7 09:27:59 17° NNW 09:29:36 22° N 09:32:35 10° ENE visible
17 Oct 3.7 09:00:38 21° N 09:00:58 22° N 09:03:54 10° ENE visible
17 Oct 2.4 10:35:54 10° NW 10:39:33 53° NNE 10:43:09 10° ESE visible
18 Oct 4.2 08:33:16 19° NNE 08:33:16 19° NNE 08:35:12 10° ENE visible
18 Oct 2.6 10:07:27 11° NW 10:10:54 48° NNE 10:14:29 10° ESE visible
19 Oct 5.0 08:05:56 13° NE 08:05:56 13° NE 08:06:28 10° ENE visible
19 Oct 2.7 09:40:07 21° NW 09:42:14 44° NNE 09:45:47 10° E visible
20 Oct 2.8 09:12:49 36° N 09:13:31 40° NNE 09:17:01 10° E visible
